Torna al catalogo

COSMOS 2251 DEB

AttivoLEO
NORAD 38486·DEBRIS·🇷🇺 Russia

Lanciato Jun 16, 1993 da Plesetsk Cosmodrome

Loading…

Prossimi Passaggi (prossime 24 ore)

TLE

AggiornatoSource: Space-Track

Epoca: Sep 13, 2026, 02:37 UTC

1 38486U 93036BTW 26256.10928390  .00009224  00000-0  11781-2 0  9990
2 38486  73.9403  23.1339 0029833  99.0561  75.4081 14.81224553794878

Traccia COSMOS 2251 DEB in tempo reale con AllMySat

Download on the App Store